Location: Carri�res
(48.9069°N, 2.1792°E)
Time: 13:11:42
(UTC+00:00)

Cosmos 1400 Rocket - Pass Details

Date: 17 January 2021
Orbit: 520 x 568 km, 81.2° (Epoch: 25 February)

Event Time Altitude Azimuth Distance (km) Brightness Sun altitude
Rises 17:20:46 0° 345° (NNW) 2,782 6.4 -9.0°
Reaches altitude 10° 17:22:59 10° 342° (NNW) 1,877 5.5 -9.3°
Maximum altitude 17:27:04 60° 262° (W) 650 3.5 -10.0°
Drops below altitude 10° 17:31:05 10° 183° (S) 1,843 5.8 -10.6°
Sets 17:33:15 0° 179° (S) 2,727 6.6 -10.9°
